Location: Kailua
(21.4020°N, 157.7390°W)
Time: 16:33:41
(UTC-10:00)

Daily predictions for brighter satellites

Satellite Brightness Start Highest point End
(mag) Time Altitude Azimuth Time Altitude Azimuth Time Altitude Azimuth
Cosmos 1954 Rocket 4.1 18:43:35 10° S 18:48:35 54° ESE 18:53:38 10° NNE
Cosmos 1745 Rocket 4.5 18:42:28 10° S 18:48:46 71° W 18:55:04 10° N
Cosmos 1633 3.7 18:46:41 10° SSE 18:49:43 25° E 18:52:45 10° NE
GPS 2-18 Rocket1 4.0 18:47:26 10° WSW 18:51:08 41° SSE 18:54:54 10° E
Cosmos 2219 4.3 18:51:32 10° SSE 18:56:03 24° ESE 19:00:33 10° NE
CENTAUR R/B 3.2 18:52:33 10° NNW 19:00:46 74° ENE 19:09:06 10° SSE
Helios 1B rocket 4.2 18:59:41 10° ENE 19:01:36 13° E 19:03:30 10° SE
GEOS 3 Rocket 4.2 18:57:18 10° NNE 19:02:30 64° WNW 19:07:43 10° SW
Cosmos 1975 Rocket 3.6 18:58:46 10° NNW 19:03:02 64° W 19:07:18 10° S
Cosmos 2360 Rocket 3.8 19:06:20 10° NE 19:09:04 14° ENE 19:10:51 12° E
Cosmos 1980 Rocket 3.2 19:04:28 10° NNW 19:09:57 51° WSW 19:15:26 10° S
ALOS 3.2 19:06:43 10° SE 19:10:31 25° ENE 19:14:20 10° NNE
Skynet4D Del rocket 3.9 19:07:58 10° SW 19:13:08 49° SSE 19:17:27 15° E
ASTRO E2 3.8 19:10:01 10° NW 19:13:38 31° NNE 19:16:21 15° ENE
SJ-6B 3.2 19:11:46 10° SSE 19:15:39 43° ENE 19:19:28 10° N
ERBS 2.5 19:16:41 10° NW 19:20:07 73° WSW 19:23:33 10° SSE
GPS 2-12 Rocket1 4.3 19:17:42 10° W 19:21:41 33° SSW 19:25:41 10° SE
Cosmos 1536 Rocket 3.7 19:17:38 10° N 19:22:00 51° E 19:26:20 10° SSE
PSLV R/B 3.1 19:19:33 10° NW 19:22:39 62° NE 19:24:38 20° ESE
GOES 2 Rocket 3.2 19:19:46 10° WNW 19:24:43 62° NNE 19:27:28 21° E
Resurs 01 Rocket 2.5 19:23:26 10° SE 19:27:11 28° ENE 19:30:55 10° NNE
Cosmos 1741 Rocket 4.0 19:24:05 10° S 19:29:13 59° ESE 19:34:21 10° NNE
Cosmos 1340 3.0 19:27:24 10° NNE 19:30:58 39° E 19:34:30 10° SSE
Hubble Space Telescope 0.9 19:29:58 10° WSW 19:34:01 61° SSE 19:35:56 29° E
FengYun 1-2 T 4.3 19:31:49 10° SSE 19:37:05 51° ENE 19:42:23 10° N
ATLAS CENTAUR R/B 2.4 19:29:54 10° SSW 19:39:01 78° SE 19:41:18 23° NE
SL-08 ROCKET BODY 4.5 19:34:04 10° SSE 19:40:01 56° E 19:46:02 10° NNE
Cosmos 1536 2.7 19:36:45 10° S 19:40:42 67° E 19:44:40 10° N
Cosmos 1300 Rocket 4.1 19:37:54 10° SSW 19:42:12 61° W 19:46:34 10° N
SL-16 R/B 2.2 19:37:48 10° NNW 19:43:29 85° WSW 19:49:08 10° SSE
FUSE 3.9 19:39:27 10° WSW 19:44:50 84° NNW 19:47:24 32° ENE
Longmarch 3A Rocket 2.3 19:43:19 10° NW 19:44:40 25° N 19:44:40 25° N
Cosmos 1238 Rocket 3.3 19:42:14 10° N 19:49:02 - SSE 19:43:49 28° NNE
OTV 4 0.5 19:42:40 10° SW 19:45:30 55° SSE 19:45:30 55° SSE
Resurs 1-3 3.9 19:47:26 27° SE 19:49:20 43° ENE 19:53:29 10° N
Meteor 1-5 Rocket 4.4 19:43:53 10° S 19:49:40 56° E 19:55:29 10° NNE
DNEPR-1 R/B 3.4 19:49:48 10° NNW 19:54:00 75° ENE 19:56:32 26° SSE
H-2A R/B 3.9 19:55:46 28° NNE 19:55:46 28° NNE 19:57:43 10° N
Atlas Centaur 2 3.4 19:49:28 10° SSW 19:55:18 27° SSE 19:56:39 25° SE
Meteor 1-19 Rocket 4.2 19:49:39 10° N 19:55:20 67° E 20:01:05 10° SSE
Cosmos 2327 Rocket 4.4 19:49:58 10° S 19:56:02 65° E 20:02:12 10° NNE
Cosmos 2322 Rocket 2.9 19:55:43 10° NNW 20:01:09 53° WSW 20:06:36 10° S
Cosmos 1461 2.7 19:58:34 10° NNW 20:02:39 84° ENE 20:03:24 59° SSE
FENGYUN 3A 3.7 19:59:03 10° S 20:04:26 79° WSW 20:09:51 10° NNW
HJ-1C 4.4 20:03:00 10° S 20:06:16 46° W 20:09:31 10° NNW
Cosmos 2181 Rocket 4.2 20:02:14 10° N 20:08:29 74° W 20:14:50 10° S
Meteor 1-13 Rocket 4.4 20:04:27 10° NNW 20:10:01 73° W 20:15:41 10° S
Spot 2 Rocket 3.4 20:05:45 10° SSE 20:10:47 88° WSW 20:15:51 10° NNW
Intercosmos 24 4.0 20:08:44 10° SSW 20:12:18 68° W 20:16:39 10° N
Cosmos 2322 3.9 20:08:52 10° N 20:13:41 49° NE 20:13:41 49° NE
Cosmos 2074 Rocket 4.1 20:09:01 10° S 20:15:13 75° W 20:21:29 10° N
Cosmos 2184 Rocket 4.1 20:09:49 10° S 20:16:10 78° W 20:22:29 10° N
Centaur D-1AR AC-36 4.4 20:02:47 10° W 20:21:09 29° SW 20:25:23 14° S
Meteor 1-23 Rocket 4.5 20:15:44 10° N 20:20:15 52° NNE 20:20:15 52° NNE
SL-19 R/B 4.5 20:16:04 10° S 20:21:35 70° WSW 20:27:17 10° NNW
OAO 3 Rocket 3.7 20:20:05 10° SW 20:24:00 51° SSW 20:24:00 51° SSW
Meteor 2-4 Rocket 3.5 20:23:01 10° N 20:28:29 83° W 20:29:40 56° S
Helios 1B rocket 4.4 20:33:16 10° NNW 20:36:49 28° WNW 20:40:22 10° SW
Cosmos 2227 Rocket 4.0 20:43:00 10° SSW 20:44:38 20° SSW 20:44:38 20° SSW
Cosmos 2360 Rocket 2.9 20:47:44 10° NNW 20:52:46 50° W 20:52:46 50° W
Resurs 01 Rocket 4.4 21:00:58 10° SW 21:03:32 15° W 21:06:06 10° WNW
ATLAS 2A CENTAUR R/B 3.1 21:02:04 10° WNW 21:47:19 - ESE 21:05:08 59° W
CZ-3 Stage 3 4.1 21:19:38 10° WSW 21:47:15 63° W 21:47:15 63° W
